STARLINK-37496, 69297

Orbit data source: Space-Track

STARLINK-37496, 69297 is a payload satellite owned by SpaceX/Seattle (US) in SSO that was launched on Sat, 30 May 2026 UTC via an FALCON 9 launch vehicle from the Air Force Western Test Range (AFWTR). Payload-class satellites include a variety of spacecraft equipped with specific instruments for various scientific and technological missions. These include communications satellites like Starlink; space stations such as the ISS; scientific satellites like the Hubble; Earth observation satellites from companies like Planet Labs, Umbra, and HawkEye 360; GPS; miniature CubeSats for education and research; and military/defense satellites.

Loading next visibility...
Identifier
69297, 2026-119B
Orbit
SSO
Country
Flag of USUS
Related business
Manufacturer
SpaceX/Seattle
Mission
Operational spacecraft
Bus & Motor
STARLINK V2MO, Unknown motor
Mass
575 kg wet, ~530 kg dry
Launch date (UTC)
2026-05-30 (2 months ago)
Launch vehicle
FALCON 9
Launch site
Air Force Western Test Range (AFWTR)
Object type
Payload
Rocket body
Debris
Shape & HBR
Unknown shape, 17.7 m
Radar Cross Section
Large (>1 m²)

Expand to show TLE details & history
Last TLE update: 15 hours ago

TLE from 15 hours ago
0 STARLINK-37496
1 69297U 26119B   26202.06000964  .00012481  00000-0  38824-3 0  9993
2 69297  97.2855 227.7657 0001760 123.3570 236.7841 15.33449009  9257
Epoch: 2026-07-21T01:26Z
TLE epoch observation values (Epoch: 2026-07-21T01:26:24.832Z)
Latitude
-0.00009°
Longitude
-92.67288°
Altitude
469.303 km
Speed
7.631 km/s
True Right ascension
15h 11m 03s
True Declination
0° 00' 00"
Sunlit
Object was in daylight at epoch
Visualization orbit readout
Latitude
Unknown
Longitude
Unknown
Altitude
Unknown
Speed
Unknown
Apparent Right ascension
Unknown
Apparent Declination
Unknown
Sunlit
N/A
Visualization observer readout
Local Sidereal Time
05:47:12
Azimuth
Unknown
Elevation
Unknown
Doppler factor
Unknown
Orbital elements
Apogee altitude
463.678 km
Perigee altitude
461.27 km
Semi-major axis
6,840.611 km
Eccentricity
0.00018
Inclination
97.2855°
RAAN
227.7657°
Arg. of periapsis
123.357°
True anomaly
236.76723°
Mean anomaly
236.7841°
Eccentric anomaly
236.77566°
Mean motion
3.8362 °/min
Orbital period
93.84 mins
BSTAR
0.00038824
Loading maneuver chart data...
Computing Atmospheric mass density...
Loading historical data...
Loading historical data...
Loading historical data...
Loading historical data...
Loading historical data...
Loading historical data...
Loading historical data...

Documentation

Showing up to 5 results
|